Hourly Data Report for June 17, 2021

TOBERMORY RCS
ONTARIO
Current Station Operator: ECCC - MSC

45°14'00.000" N
81°38'00.000" W
213.50 m
6128330
71767
TTR

Download Data

Hourly Data (June 2021)
Hourly Data Report for June 17, 2021
TIME
LST
Temp Definition
°C
Dew Point Definition
°C
Rel Hum Definition
%
Precip. Amount Definition
mm

Wind Dir Definition
10's deg

Wind Spd Definition
km/h
Visibility Definition
km
Stn Press Definition
kPa
Hmdx Definition


Wind Chill Definition


Weather Definition


00:00 10.6 8.6 87 0.0 26 7   99.07     LegendNANA
01:00 10.9 9.2 89 0.0 26 9   99.06     LegendNANA
02:00 11.0 8.6 85 0.0 26 8   99.06     LegendNANA
03:00 10.7 9.2 90 0.0 26 8   99.03     LegendNANA
04:00 10.3 8.9 91 0.0 26 7   99.04     LegendNANA
05:00 10.7 8.9 88 0.0 28 7   99.02     LegendNANA
06:00 12.5 9.2 81 0.0 26 6   99.01     LegendNANA
07:00 15.3 7.1 58 0.0 26 10   99.08     LegendNANA
08:00 17.4 6.9 50 0.0 27 12   99.12     LegendNANA
09:00 17.4 8.3 55 0.0 22 11   99.09     LegendNANA
10:00 17.3 8.2 55 0.0 21 11   99.07     LegendNANA
11:00 16.7 8.9 60 0.0 22 15   99.08     LegendNANA
12:00 18.1 6.0 45 0.0 21 14   99.06     LegendNANA
13:00 18.8 3.0 35 0.0 21 14   99.01     LegendNANA
14:00 19.5 2.2 31 0.0 20 15   98.94     LegendNANA
15:00 19.9 3.7 34 0.0 20 14   98.89     LegendNANA
16:00 19.5 7.9 47 0.0 20 15   98.81     LegendNANA
17:00 17.7 8.8 56 0.0 18 13   98.69     LegendNANA
18:00 17.5 9.1 58 0.0 19 14   98.66     LegendNANA
19:00 17.3 9.5 60 0.0 18 13   98.60     LegendNANA
20:00 15.5 10.5 72 0.0 18 11   98.53     LegendNANA
21:00 15.5 10.0 70 0.0 18 9   98.54     LegendNANA
22:00 19.1 7.6 47 0.0 20 13   98.53     LegendNANA
23:00 19.2 8.7 51 0.0 21 14   98.50     LegendNANA

Notes on Data Quality.

Legend

  • E = Estimated
  • M = Missing
  • NA = Not Available*
  • [empty] = Indicates an unobserved value
Date modified: